Time,TemperatureF,DewpointF,PressureIn,WindDirection,WindDirectionDegrees,WindSpeedMPH,WindSpeedGustMPH,Humidity,HourlyPrecipIn,Conditions,Clouds,dailyrainin,SoftwareType,DateUTC
2013-08-02 00:02:00,65.9,63.8,29.95,NNW,331,0.0,0.0,93,0.00,CLR,,0.00,WeatherDisplay:10.37,2013-08-02 05:02:00,
2013-08-02 00:07:00,65.8,63.7,29.95,NNW,331,0.0,0.0,93,0.00,CLR,,0.00,WeatherDisplay:10.37,2013-08-02 05:07:00,
2013-08-02 00:12:00,65.7,63.6,29.95,NNW,331,0.0,0.0,93,0.00,CLR,,0.00,WeatherDisplay:10.37,2013-08-02 05:12:00,
2013-08-02 00:17:00,65.6,63.5,29.95,NNW,331,0.0,0.0,93,0.00,CLR,,0.00,WeatherDisplay:10.37,2013-08-02 05:17:00,
2013-08-02 00:22:00,65.5,63.4,29.95,NNW,331,0.0,0.0,93,0.00,CLR,,0.00,WeatherDisplay:10.37,2013-08-02 05:22:00,
2013-08-02 00:27:00,65.3,63.2,29.95,NNW,331,0.0,0.0,93,0.00,CLR,,0.00,WeatherDisplay:10.37,2013-08-02 05:27:00,
2013-08-02 00:32:00,65.2,63.1,29.95,NNW,331,0.0,0.0,93,0.00,CLR,,0.00,WeatherDisplay:10.37,2013-08-02 05:32:00,
2013-08-02 00:37:00,65.2,63.1,29.95,NNW,331,0.0,0.0,93,0.00,CLR,,0.00,WeatherDisplay:10.37,2013-08-02 05:37:00,
2013-08-02 00:42:00,65.1,63.0,29.96,NNW,331,0.0,0.0,93,0.00,CLR,,0.00,WeatherDisplay:10.37,2013-08-02 05:42:00,
2013-08-02 00:47:00,65.0,62.9,29.96,NNW,331,0.0,0.0,93,0.00,CLR,,0.00,WeatherDisplay:10.37,2013-08-02 05:47:00,
2013-08-02 00:52:00,65.0,63.2,29.96,NNW,331,0.0,0.0,94,0.00,CLR,,0.00,WeatherDisplay:10.37,2013-08-02 05:52:00,
2013-08-02 00:57:00,64.9,62.8,29.95,NNW,331,0.0,0.0,93,0.00,CLR,,0.00,WeatherDisplay:10.37,2013-08-02 05:57:00,
2013-08-02 01:02:00,64.9,63.1,29.95,NNW,331,0.0,0.0,94,0.00,CLR,,0.00,WeatherDisplay:10.37,2013-08-02 06:02:00,
2013-08-02 01:07:00,64.8,63.0,29.95,NNW,331,0.0,0.0,94,0.00,CLR,,0.00,WeatherDisplay:10.37,2013-08-02 06:07:00,
2013-08-02 01:12:00,64.7,62.9,29.95,NNW,331,0.0,0.0,94,0.00,CLR,,0.00,WeatherDisplay:10.37,2013-08-02 06:12:00,
2013-08-02 01:17:00,64.7,62.6,29.95,NNW,331,0.0,0.0,93,0.00,CLR,,0.00,WeatherDisplay:10.37,2013-08-02 06:17:00,
2013-08-02 01:22:00,64.5,62.4,29.95,NNW,331,0.0,0.0,93,0.00,CLR,,0.00,WeatherDisplay:10.37,2013-08-02 06:22:00,
2013-08-02 01:27:00,64.4,62.6,29.95,NNW,331,0.0,0.0,94,0.00,CLR,,0.00,WeatherDisplay:10.37,2013-08-02 06:27:00,
2013-08-02 01:32:00,64.5,62.7,29.95,NNW,331,0.0,0.0,94,0.00,CLR,,0.00,WeatherDisplay:10.37,2013-08-02 06:32:00,
2013-08-02 01:37:00,64.5,62.7,29.95,NNW,331,0.0,0.0,94,0.00,CLR,,0.00,WeatherDisplay:10.37,2013-08-02 06:37:00,
2013-08-02 01:42:00,64.4,62.6,29.95,NNW,331,0.0,0.0,94,0.00,CLR,,0.00,WeatherDisplay:10.37,2013-08-02 06:42:00,
2013-08-02 01:47:00,64.3,62.5,29.95,NNW,331,0.0,0.0,94,0.00,CLR,,0.00,WeatherDisplay:10.37,2013-08-02 06:47:00,
2013-08-02 01:52:00,64.2,62.4,29.94,NNW,331,0.0,0.0,94,0.00,CLR,,0.00,WeatherDisplay:10.37,2013-08-02 06:52:00,
2013-08-02 01:57:00,64.0,62.2,29.94,NNW,331,0.0,0.0,94,0.00,CLR,,0.00,WeatherDisplay:10.37,2013-08-02 06:57:00,
2013-08-02 02:02:00,63.8,62.0,29.94,NNW,331,0.0,0.0,94,0.00,CLR,,0.00,WeatherDisplay:10.37,2013-08-02 07:02:00,
2013-08-02 02:07:00,63.9,62.1,29.93,NNE,27,0.0,0.0,94,0.00,CLR,,0.00,WeatherDisplay:10.37,2013-08-02 07:07:00,
2013-08-02 02:12:00,63.9,62.1,29.92,NNE,27,0.0,0.0,94,0.00,CLR,,0.00,WeatherDisplay:10.37,2013-08-02 07:12:00,
2013-08-02 02:17:00,63.7,61.9,29.93,NNE,27,0.0,0.0,94,0.00,CLR,,0.00,WeatherDisplay:10.37,2013-08-02 07:17:00,
2013-08-02 02:22:00,63.7,61.9,29.93,NNE,27,0.0,0.0,94,0.00,CLR,,0.00,WeatherDisplay:10.37,2013-08-02 07:22:00,
2013-08-02 02:27:00,63.7,61.9,29.93,NNE,27,0.0,0.0,94,0.00,CLR,,0.00,WeatherDisplay:10.37,2013-08-02 07:27:00,
2013-08-02 02:32:00,63.8,62.0,29.94,NNE,27,0.0,0.0,94,0.00,CLR,,0.00,WeatherDisplay:10.37,2013-08-02 07:32:00,
2013-08-02 02:37:00,63.7,61.9,29.95,NNE,27,0.0,0.0,94,0.00,CLR,,0.00,WeatherDisplay:10.37,2013-08-02 07:37:00,
2013-08-02 02:42:00,63.7,62.2,29.94,NNE,27,0.0,0.0,95,0.00,CLR,,0.00,WeatherDisplay:10.37,2013-08-02 07:42:00,
2013-08-02 02:47:00,63.9,62.4,29.94,NNE,27,0.0,0.0,95,0.00,CLR,,0.00,WeatherDisplay:10.37,2013-08-02 07:47:00,
2013-08-02 02:52:00,63.9,62.1,29.94,NNE,27,0.0,0.0,94,0.00,CLR,,0.00,WeatherDisplay:10.37,2013-08-02 07:52:00,
2013-08-02 02:57:00,63.6,61.8,29.94,NNE,27,0.0,0.0,94,0.00,CLR,,0.00,WeatherDisplay:10.37,2013-08-02 07:57:00,
2013-08-02 03:02:00,63.5,61.7,29.94,NNE,27,0.0,0.0,94,0.00,CLR,,0.00,WeatherDisplay:10.37,2013-08-02 08:02:00,
2013-08-02 03:08:00,63.4,61.6,29.94,NNE,27,0.0,0.0,94,0.00,CLR,,0.00,WeatherDisplay:10.37,2013-08-02 08:08:00,
2013-08-02 03:13:00,63.4,61.6,29.94,NNE,27,0.0,0.0,94,0.00,CLR,,0.00,WeatherDisplay:10.37,2013-08-02 08:13:00,
2013-08-02 03:18:00,63.3,61.5,29.94,NNE,27,0.0,0.0,94,0.00,CLR,,0.00,WeatherDisplay:10.37,2013-08-02 08:18:00,
2013-08-02 03:22:00,63.2,61.4,29.94,NNE,27,0.0,0.0,94,0.00,CLR,,0.00,WeatherDisplay:10.37,2013-08-02 08:22:00,
2013-08-02 03:28:00,63.2,61.7,29.94,NNE,27,0.0,0.0,95,0.00,CLR,,0.00,WeatherDisplay:10.37,2013-08-02 08:28:00,
2013-08-02 03:33:00,63.3,61.8,29.94,NNE,27,0.0,0.0,95,0.00,CLR,,0.00,WeatherDisplay:10.37,2013-08-02 08:33:00,
2013-08-02 03:38:00,63.3,61.8,29.93,NNE,27,0.0,0.0,95,0.00,CLR,,0.00,WeatherDisplay:10.37,2013-08-02 08:38:00,
2013-08-02 03:43:00,63.4,61.9,29.93,NNE,27,0.0,0.0,95,0.00,CLR,,0.00,WeatherDisplay:10.37,2013-08-02 08:43:00,
2013-08-02 03:48:00,63.3,61.8,29.93,NNE,27,0.0,0.0,95,0.00,CLR,,0.00,WeatherDisplay:10.37,2013-08-02 08:48:00,
2013-08-02 03:53:00,63.2,61.4,29.93,NNE,27,0.0,0.0,94,0.00,CLR,,0.00,WeatherDisplay:10.37,2013-08-02 08:53:00,
2013-08-02 03:58:00,63.1,61.6,29.93,NNE,27,0.0,0.0,95,0.00,CLR,,0.00,WeatherDisplay:10.37,2013-08-02 08:58:00,
2013-08-02 04:03:00,63.1,61.6,29.94,NNE,27,0.0,0.0,95,0.00,CLR,,0.00,WeatherDisplay:10.37,2013-08-02 09:03:00,
2013-08-02 04:08:00,63.0,61.2,29.94,NNE,27,0.0,0.0,94,0.00,CLR,,0.00,WeatherDisplay:10.37,2013-08-02 09:08:00,
2013-08-02 04:13:00,62.9,61.4,29.94,NNE,27,0.0,0.0,95,0.00,CLR,,0.00,WeatherDisplay:10.37,2013-08-02 09:13:00,
2013-08-02 04:18:00,63.0,61.5,29.94,NNE,27,0.0,0.0,95,0.00,CLR,,0.00,WeatherDisplay:10.37,2013-08-02 09:18:00,
2013-08-02 04:23:00,63.1,61.6,29.94,NNE,27,0.0,0.0,95,0.00,CLR,,0.00,WeatherDisplay:10.37,2013-08-02 09:23:00,
2013-08-02 04:28:00,63.1,61.6,29.94,NNE,27,0.0,0.0,95,0.00,CLR,,0.00,WeatherDisplay:10.37,2013-08-02 09:28:00,
2013-08-02 04:33:00,63.2,61.7,29.94,NNE,27,0.0,0.0,95,0.00,CLR,,0.00,WeatherDisplay:10.37,2013-08-02 09:33:00,
2013-08-02 04:38:00,63.2,61.7,29.93,NNE,27,0.0,0.0,95,0.00,CLR,,0.00,WeatherDisplay:10.37,2013-08-02 09:38:00,
2013-08-02 04:43:00,63.1,61.6,29.93,NNE,27,0.0,0.0,95,0.00,CLR,,0.00,WeatherDisplay:10.37,2013-08-02 09:43:00,
2013-08-02 04:48:00,62.9,61.1,29.93,NNE,27,0.0,0.0,94,0.00,CLR,,0.00,WeatherDisplay:10.37,2013-08-02 09:48:00,
2013-08-02 04:53:00,62.6,60.8,29.93,NNE,27,0.0,0.0,94,0.00,CLR,,0.00,WeatherDisplay:10.37,2013-08-02 09:53:00,
2013-08-02 04:58:00,62.6,61.1,29.93,NNE,27,0.0,0.0,95,0.00,CLR,,0.00,WeatherDisplay:10.37,2013-08-02 09:58:00,
2013-08-02 05:03:00,62.6,61.1,29.93,NNE,27,0.0,0.0,95,0.00,CLR,,0.00,WeatherDisplay:10.37,2013-08-02 10:03:00,
2013-08-02 05:08:00,62.7,61.2,29.94,NNE,27,0.0,0.0,95,0.00,CLR,,0.00,WeatherDisplay:10.37,2013-08-02 10:08:00,
2013-08-02 05:13:00,62.8,61.3,29.94,NNE,27,0.0,0.0,95,0.00,CLR,,0.00,WeatherDisplay:10.37,2013-08-02 10:13:00,
2013-08-02 05:18:00,62.9,61.4,29.95,NNE,27,0.0,0.0,95,0.00,CLR,,0.00,WeatherDisplay:10.37,2013-08-02 10:18:00,
2013-08-02 05:23:00,62.9,61.4,29.94,NNE,27,0.0,0.0,95,0.00,CLR,,0.00,WeatherDisplay:10.37,2013-08-02 10:23:00,
2013-08-02 05:28:00,62.9,61.4,29.95,NNE,27,0.0,0.0,95,0.00,CLR,,0.00,WeatherDisplay:10.37,2013-08-02 10:28:00,
2013-08-02 05:33:00,62.7,61.2,29.95,NNE,27,0.0,0.0,95,0.00,CLR,,0.00,WeatherDisplay:10.37,2013-08-02 10:33:00,
2013-08-02 05:38:00,62.6,61.1,29.95,NNE,27,0.0,0.0,95,0.00,CLR,,0.00,WeatherDisplay:10.37,2013-08-02 10:38:00,
2013-08-02 05:43:00,62.7,61.2,29.94,NNE,27,0.0,0.0,95,0.00,CLR,,0.00,WeatherDisplay:10.37,2013-08-02 10:43:00,
2013-08-02 05:48:00,62.7,61.2,29.94,NNE,27,0.0,0.0,95,0.00,CLR,,0.00,WeatherDisplay:10.37,2013-08-02 10:48:00,
2013-08-02 05:53:00,62.7,61.2,29.94,NNE,27,0.0,0.0,95,0.00,CLR,,0.00,WeatherDisplay:10.37,2013-08-02 10:53:00,
2013-08-02 05:58:00,62.9,61.4,29.95,NNE,27,0.0,0.0,95,0.00,CLR,,0.00,WeatherDisplay:10.37,2013-08-02 10:58:00,
2013-08-02 06:03:00,62.9,61.4,29.95,NNE,27,0.0,0.0,95,0.00,CLR,,0.00,WeatherDisplay:10.37,2013-08-02 11:03:00,
2013-08-02 06:08:00,63.0,61.8,29.95,NNE,27,0.0,0.0,96,0.00,CLR,,0.00,WeatherDisplay:10.37,2013-08-02 11:08:00,
2013-08-02 06:13:00,63.1,61.9,29.94,NNE,27,0.0,0.0,96,0.00,CLR,,0.00,WeatherDisplay:10.37,2013-08-02 11:13:00,
2013-08-02 06:18:00,63.1,61.9,29.94,NNE,27,0.0,0.0,96,0.00,CLR,,0.00,WeatherDisplay:10.37,2013-08-02 11:18:00,
2013-08-02 06:23:00,63.1,61.9,29.95,NNE,27,0.0,0.0,96,0.00,CLR,,0.00,WeatherDisplay:10.37,2013-08-02 11:23:00,
2013-08-02 06:28:00,63.1,61.9,29.95,NNE,27,0.0,0.0,96,0.00,CLR,,0.00,WeatherDisplay:10.37,2013-08-02 11:28:00,
2013-08-02 06:33:00,63.2,62.0,29.95,NNE,27,0.0,0.0,96,0.00,CLR,,0.00,WeatherDisplay:10.37,2013-08-02 11:33:00,
2013-08-02 06:38:00,63.3,62.1,29.95,NNE,27,0.0,0.0,96,0.00,CLR,,0.00,WeatherDisplay:10.37,2013-08-02 11:38:00,
2013-08-02 06:43:00,63.4,62.2,29.95,NNE,27,0.0,0.0,96,0.00,CLR,,0.00,WeatherDisplay:10.37,2013-08-02 11:43:00,
2013-08-02 06:48:00,63.4,62.2,29.95,NNE,27,0.0,0.0,96,0.00,CLR,,0.00,WeatherDisplay:10.37,2013-08-02 11:48:00,
2013-08-02 06:53:00,63.5,62.3,29.95,NNE,27,0.0,0.0,96,0.00,CLR,,0.00,WeatherDisplay:10.37,2013-08-02 11:53:00,
2013-08-02 06:58:00,63.6,62.4,29.95,NNE,27,0.0,0.0,96,0.00,CLR,,0.00,WeatherDisplay:10.37,2013-08-02 11:58:00,
2013-08-02 07:03:00,63.8,62.9,29.95,NNE,27,0.0,0.0,97,0.00,CLR,,0.00,WeatherDisplay:10.37,2013-08-02 12:03:00,
2013-08-02 07:08:00,64.0,62.8,29.94,NNE,27,0.0,0.0,96,0.00,CLR,,0.00,WeatherDisplay:10.37,2013-08-02 12:08:00,
2013-08-02 07:13:00,64.2,63.0,29.95,NNE,27,0.0,0.0,96,0.00,CLR,,0.00,WeatherDisplay:10.37,2013-08-02 12:13:00,
2013-08-02 07:18:00,64.4,63.5,29.95,NNE,27,0.0,0.0,97,0.00,CLR,,0.00,WeatherDisplay:10.37,2013-08-02 12:18:00,
2013-08-02 07:23:00,64.7,63.8,29.95,NNE,27,0.0,0.0,97,0.00,CLR,,0.00,WeatherDisplay:10.37,2013-08-02 12:23:00,
2013-08-02 07:28:00,65.0,64.1,29.95,NNE,27,0.0,0.0,97,0.00,CLR,,0.00,WeatherDisplay:10.37,2013-08-02 12:28:00,
2013-08-02 07:33:00,65.4,64.5,29.95,NNE,27,0.0,0.0,97,0.00,CLR,,0.00,WeatherDisplay:10.37,2013-08-02 12:33:00,
2013-08-02 07:38:00,65.8,64.9,29.95,NNE,27,0.0,0.0,97,0.00,CLR,,0.00,WeatherDisplay:10.37,2013-08-02 12:38:00,
2013-08-02 07:43:00,66.1,65.2,29.95,NNE,27,0.0,0.0,97,0.00,CLR,,0.00,WeatherDisplay:10.37,2013-08-02 12:43:00,
2013-08-02 07:48:00,66.5,65.6,29.95,NNE,27,0.0,0.0,97,0.00,CLR,,0.00,WeatherDisplay:10.37,2013-08-02 12:48:00,
2013-08-02 07:53:00,67.0,66.1,29.96,NNE,27,0.0,0.0,97,0.00,CLR,,0.00,WeatherDisplay:10.37,2013-08-02 12:53:00,
2013-08-02 07:59:00,67.4,66.5,29.96,NNE,23,0.0,0.0,97,0.00,CLR,,0.00,WeatherDisplay:10.37,2013-08-02 12:59:00,
2013-08-02 08:04:00,67.7,66.8,29.96,WSW,246,0.0,0.0,97,0.00,CLR,,0.00,WeatherDisplay:10.37,2013-08-02 13:04:00,
2013-08-02 08:09:00,68.1,67.2,29.96,West,264,0.0,0.0,97,0.00,CLR,,0.00,WeatherDisplay:10.37,2013-08-02 13:09:00,
2013-08-02 08:14:00,68.5,67.6,29.96,West,264,0.0,0.0,97,0.00,CLR,,0.00,WeatherDisplay:10.37,2013-08-02 13:14:00,
2013-08-02 08:19:00,69.0,67.8,29.97,SW,232,0.0,0.0,96,0.00,CLR,,0.00,WeatherDisplay:10.37,2013-08-02 13:19:00,
2013-08-02 08:24:00,69.4,68.2,29.97,ESE,107,0.0,0.0,96,0.00,CLR,,0.00,WeatherDisplay:10.37,2013-08-02 13:24:00,
2013-08-02 08:29:00,70.0,68.5,29.97,South,175,0.0,0.0,95,0.00,CLR,,0.00,WeatherDisplay:10.37,2013-08-02 13:29:00,
2013-08-02 08:34:00,70.5,68.7,29.97,WSW,249,0.0,0.0,94,0.00,CLR,,0.00,WeatherDisplay:10.37,2013-08-02 13:34:00,
2013-08-02 08:39:00,71.0,68.9,29.97,WNW,294,1.1,1.1,93,0.00,CLR,,0.00,WeatherDisplay:10.37,2013-08-02 13:39:00,
2013-08-02 08:44:00,71.7,69.6,29.97,SW,225,1.1,1.1,93,0.00,CLR,,0.00,WeatherDisplay:10.37,2013-08-02 13:44:00,
2013-08-02 08:49:00,72.3,69.8,29.97,SW,229,0.0,0.0,92,0.00,CLR,,0.00,WeatherDisplay:10.37,2013-08-02 13:49:00,
2013-08-02 08:54:00,73.1,70.3,29.97,SW,228,0.0,0.0,91,0.00,CLR,,0.00,WeatherDisplay:10.37,2013-08-02 13:54:00,
2013-08-02 08:59:00,73.8,70.4,29.97,SW,231,2.3,2.3,89,0.00,CLR,,0.00,WeatherDisplay:10.37,2013-08-02 13:59:00,
2013-08-02 09:04:00,74.4,70.6,29.97,WSW,251,2.3,2.3,88,0.00,CLR,,0.00,WeatherDisplay:10.37,2013-08-02 14:04:00,
2013-08-02 09:09:00,75.0,70.9,29.98,WSW,251,2.3,2.3,87,0.00,CLR,,0.00,WeatherDisplay:10.37,2013-08-02 14:09:00,
2013-08-02 09:14:00,75.3,70.5,29.98,WSW,249,3.5,3.5,85,0.00,CLR,,0.00,WeatherDisplay:10.37,2013-08-02 14:14:00,
2013-08-02 09:19:00,75.5,70.0,29.97,SW,236,2.3,2.3,83,0.00,CLR,,0.00,WeatherDisplay:10.37,2013-08-02 14:19:00,
2013-08-02 09:24:00,75.7,70.5,29.97,SW,235,1.1,1.1,84,0.00,CLR,,0.00,WeatherDisplay:10.37,2013-08-02 14:24:00,
2013-08-02 09:29:00,75.9,70.4,29.97,SW,229,0.0,0.0,83,0.00,CLR,,0.00,WeatherDisplay:10.37,2013-08-02 14:29:00,
2013-08-02 09:34:00,76.2,70.3,29.97,SW,229,0.0,0.0,82,0.00,CLR,,0.00,WeatherDisplay:10.37,2013-08-02 14:34:00,
2013-08-02 09:39:00,76.7,70.8,29.97,SW,229,0.0,0.0,82,0.00,CLR,,0.00,WeatherDisplay:10.37,2013-08-02 14:39:00,
2013-08-02 09:44:00,77.1,70.8,29.97,WSW,245,3.5,3.5,81,0.00,CLR,,0.00,WeatherDisplay:10.37,2013-08-02 14:44:00,
2013-08-02 09:49:00,77.3,71.0,29.97,WSW,238,2.3,2.3,81,0.00,CLR,,0.00,WeatherDisplay:10.37,2013-08-02 14:49:00,
2013-08-02 09:54:00,77.3,71.0,29.97,SW,232,2.3,2.3,81,0.00,CLR,,0.00,WeatherDisplay:10.37,2013-08-02 14:54:00,
2013-08-02 09:59:00,77.5,71.2,29.97,East,89,0.0,0.0,81,0.00,CLR,,0.00,WeatherDisplay:10.37,2013-08-02 14:59:00,
2013-08-02 10:04:00,77.8,71.1,29.97,ESE,120,0.0,0.0,80,0.00,CLR,,0.00,WeatherDisplay:10.37,2013-08-02 15:04:00,
2013-08-02 10:09:00,78.2,71.2,29.98,WSW,246,1.1,1.1,79,0.00,CLR,,0.00,WeatherDisplay:10.37,2013-08-02 15:09:00,
2013-08-02 10:14:00,78.5,71.4,29.98,West,261,1.1,1.1,79,0.00,CLR,,0.00,WeatherDisplay:10.37,2013-08-02 15:14:00,
2013-08-02 10:19:00,79.0,71.6,29.97,SSW,203,0.0,0.0,78,0.00,CLR,,0.00,WeatherDisplay:10.37,2013-08-02 15:19:00,
2013-08-02 10:24:00,79.3,71.8,29.98,SSW,206,0.0,0.0,78,0.00,CLR,,0.00,WeatherDisplay:10.37,2013-08-02 15:24:00,
2013-08-02 10:29:00,79.2,71.4,29.98,WSW,248,1.1,1.1,77,0.00,CLR,,0.00,WeatherDisplay:10.37,2013-08-02 15:29:00,
2013-08-02 10:34:00,79.2,72.1,29.98,WSW,246,1.0,0.0,79,0.00,CLR,,0.00,WeatherDisplay:10.37,2013-08-02 15:34:00,
2013-08-02 10:39:00,79.2,71.0,29.98,ESE,121,3.5,3.5,76,0.00,CLR,,0.00,WeatherDisplay:10.37,2013-08-02 15:39:00,
2013-08-02 10:44:00,79.2,70.6,29.98,WSW,238,3.5,3.5,75,0.00,CLR,,0.00,WeatherDisplay:10.37,2013-08-02 15:44:00,
2013-08-02 10:49:00,79.2,71.0,29.98,WSW,238,2.3,2.3,76,0.00,CLR,,0.00,WeatherDisplay:10.37,2013-08-02 15:49:00,
2013-08-02 10:54:00,79.3,71.8,29.98,WSW,238,0.0,0.0,78,0.00,CLR,,0.00,WeatherDisplay:10.37,2013-08-02 15:54:00,
2013-08-02 10:59:00,79.5,71.3,29.98,South,188,0.0,0.0,76,0.00,CLR,,0.00,WeatherDisplay:10.37,2013-08-02 15:59:00,
2013-08-02 11:04:00,79.7,71.8,29.97,WSW,249,0.0,0.0,77,0.00,CLR,,0.00,WeatherDisplay:10.37,2013-08-02 16:04:00,
2013-08-02 11:09:00,79.9,71.3,29.97,WSW,245,0.0,0.2,75,0.00,CLR,,0.00,WeatherDisplay:10.37,2013-08-02 16:09:00,
2013-08-02 11:14:00,80.2,70.8,29.97,ENE,71,2.3,0.0,73,0.00,CLR,,0.00,WeatherDisplay:10.37,2013-08-02 16:14:00,
2013-08-02 11:19:00,80.5,71.0,29.97,NNE,19,0.0,0.0,73,0.00,CLR,,0.00,WeatherDisplay:10.37,2013-08-02 16:19:00,
2013-08-02 11:24:00,81.1,71.6,29.97,WSW,237,3.5,3.5,73,0.00,CLR,,0.00,WeatherDisplay:10.37,2013-08-02 16:24:00,
2013-08-02 11:29:00,81.9,72.4,29.97,SW,219,1.1,0.0,73,0.00,CLR,,0.00,WeatherDisplay:10.37,2013-08-02 16:29:00,
2013-08-02 11:34:00,82.4,71.6,29.97,WSW,239,1.1,0.0,70,0.00,CLR,,0.00,WeatherDisplay:10.37,2013-08-02 16:34:00,
2013-08-02 11:39:00,82.4,71.2,29.98,WSW,250,1.0,1.0,69,0.00,CLR,,0.00,WeatherDisplay:10.37,2013-08-02 16:39:00,
2013-08-02 11:44:00,82.4,72.0,29.98,SW,235,4.0,4.0,71,0.00,CLR,,0.00,WeatherDisplay:10.37,2013-08-02 16:44:00,
2013-08-02 11:49:00,82.4,72.5,29.98,SW,216,3.5,3.5,72,0.00,CLR,,0.00,WeatherDisplay:10.37,2013-08-02 16:49:00,
2013-08-02 11:54:00,82.3,71.1,29.97,SW,233,1.0,0.0,69,0.00,CLR,,0.00,WeatherDisplay:10.37,2013-08-02 16:54:00,
2013-08-02 11:59:00,82.4,72.0,29.97,WSW,244,2.0,2.0,71,0.00,CLR,,0.00,WeatherDisplay:10.37,2013-08-02 16:59:00,
2013-08-02 12:04:00,82.8,72.4,29.97,SW,230,5.8,5.8,71,0.00,CLR,,0.00,WeatherDisplay:10.37,2013-08-02 17:04:00,
2013-08-02 12:09:00,82.9,71.7,29.97,SW,226,1.1,0.0,69,0.00,CLR,,0.00,WeatherDisplay:10.37,2013-08-02 17:09:00,
2013-08-02 12:14:00,83.3,72.1,29.97,SW,234,3.0,3.0,69,0.00,CLR,,0.00,WeatherDisplay:10.37,2013-08-02 17:14:00,
2013-08-02 12:19:00,83.4,71.3,29.97,WSW,237,4.6,4.6,67,0.00,CLR,,0.00,WeatherDisplay:10.37,2013-08-02 17:19:00,
2013-08-02 12:24:00,83.2,71.5,29.97,SW,233,3.5,3.5,68,0.00,CLR,,0.00,WeatherDisplay:10.37,2013-08-02 17:24:00,
2013-08-02 12:29:00,83.7,72.4,29.97,West,263,3.5,3.5,69,0.00,CLR,,0.00,WeatherDisplay:10.37,2013-08-02 17:29:00,
2013-08-02 12:34:00,84.2,72.9,29.97,SW,228,5.8,5.8,69,0.00,CLR,,0.00,WeatherDisplay:10.37,2013-08-02 17:34:00,
2013-08-02 12:39:00,84.0,70.5,29.97,West,264,3.5,3.5,64,0.00,CLR,,0.00,WeatherDisplay:10.37,2013-08-02 17:39:00,
2013-08-02 12:44:00,83.5,69.6,29.97,SW,227,4.6,4.6,63,0.00,CLR,,0.00,WeatherDisplay:10.37,2013-08-02 17:44:00,
2013-08-02 12:49:00,83.1,69.7,29.97,WSW,250,3.5,3.5,64,0.00,CLR,,0.00,WeatherDisplay:10.37,2013-08-02 17:49:00,
2013-08-02 12:54:00,83.2,72.0,29.97,SW,232,3.5,3.5,69,0.00,CLR,,0.00,WeatherDisplay:10.37,2013-08-02 17:54:00,
2013-08-02 12:59:00,83.2,70.7,29.97,SSW,213,3.5,3.5,66,0.00,CLR,,0.00,WeatherDisplay:10.37,2013-08-02 17:59:00,
2013-08-02 13:04:00,82.9,69.9,29.96,SW,232,3.5,3.5,65,0.00,CLR,,0.00,WeatherDisplay:10.37,2013-08-02 18:04:00,
2013-08-02 13:09:00,82.8,69.4,29.96,East,87,2.3,2.3,64,0.00,CLR,,0.00,WeatherDisplay:10.37,2013-08-02 18:09:00,
2013-08-02 13:14:00,83.2,70.7,29.96,ENE,78,1.0,1.0,66,0.00,CLR,,0.00,WeatherDisplay:10.37,2013-08-02 18:14:00,
2013-08-02 13:19:00,83.9,72.2,29.96,SW,225,1.1,1.1,68,0.00,CLR,,0.00,WeatherDisplay:10.37,2013-08-02 18:19:00,
2013-08-02 13:25:00,84.3,71.2,29.96,SW,233,1.0,1.0,65,0.00,CLR,,0.00,WeatherDisplay:10.37,2013-08-02 18:25:00,
2013-08-02 13:30:00,84.7,71.2,29.95,ESE,119,1.0,3.0,64,0.00,CLR,,0.00,WeatherDisplay:10.37,2013-08-02 18:30:00,
2013-08-02 13:35:00,85.3,71.3,29.95,WSW,255,5.8,5.8,63,0.00,CLR,,0.00,WeatherDisplay:10.37,2013-08-02 18:35:00,
2013-08-02 13:40:00,85.8,72.2,29.95,ESE,105,1.1,1.1,64,0.00,CLR,,0.00,WeatherDisplay:10.37,2013-08-02 18:40:00,
2013-08-02 13:45:00,86.2,72.1,29.95,SSW,193,0.0,2.0,63,0.00,CLR,,0.00,WeatherDisplay:10.37,2013-08-02 18:45:00,
2013-08-02 13:50:00,86.4,72.8,29.96,WSW,239,1.0,7.0,64,0.00,CLR,,0.00,WeatherDisplay:10.37,2013-08-02 18:50:00,
2013-08-02 13:54:00,86.2,70.7,29.96,SW,223,1.0,5.0,60,0.00,CLR,,0.00,WeatherDisplay:10.37,2013-08-02 18:54:00,
2013-08-02 14:00:00,86.2,72.6,29.95,ESE,112,1.0,3.0,64,0.00,CLR,,0.00,WeatherDisplay:10.37,2013-08-02 19:00:00,
2013-08-02 14:05:00,86.1,73.0,29.95,SW,236,2.3,2.3,65,0.00,CLR,,0.00,WeatherDisplay:10.37,2013-08-02 19:05:00,
2013-08-02 14:09:00,86.1,72.5,29.95,SW,230,1.0,4.0,64,0.00,CLR,,0.00,WeatherDisplay:10.37,2013-08-02 19:09:00,
2013-08-02 14:10:00,86.1,73.0,29.94,SSW,209,3.5,3.5,65,0.00,CLR,,0.00,WeatherDisplay:10.37,2013-08-02 19:10:00,
2013-08-02 14:15:00,86.3,70.8,29.95,WSW,239,1.0,4.0,60,0.00,CLR,,0.00,WeatherDisplay:10.37,2013-08-02 19:15:00,
2013-08-02 14:20:00,86.4,71.4,29.95,SW,236,6.9,6.9,61,0.00,CLR,,0.00,WeatherDisplay:10.37,2013-08-02 19:20:00,
2013-08-02 14:25:00,86.2,69.7,29.95,WSW,246,1.0,5.0,58,0.00,CLR,,0.00,WeatherDisplay:10.37,2013-08-02 19:25:00,
2013-08-02 14:30:00,86.0,71.0,29.94,West,265,0.0,2.0,61,0.00,CLR,,0.00,WeatherDisplay:10.37,2013-08-02 19:30:00,
2013-08-02 14:34:00,85.9,72.8,29.94,West,279,1.1,0.0,65,0.00,CLR,,0.00,WeatherDisplay:10.37,2013-08-02 19:34:00,
2013-08-02 14:35:00,85.8,72.7,29.94,West,274,0.0,1.0,65,0.00,CLR,,0.00,WeatherDisplay:10.37,2013-08-02 19:35:00,
2013-08-02 14:39:00,85.8,71.7,29.94,West,261,0.0,5.0,63,0.00,CLR,,0.00,WeatherDisplay:10.37,2013-08-02 19:39:00,
2013-08-02 14:45:00,85.8,72.2,29.94,NW,306,0.0,0.2,64,0.00,CLR,,0.00,WeatherDisplay:10.37,2013-08-02 19:45:00,
2013-08-02 14:50:00,86.0,72.9,29.94,WSW,255,2.0,2.0,65,0.00,CLR,,0.00,WeatherDisplay:10.37,2013-08-02 19:50:00,
2013-08-02 14:54:00,85.8,70.3,29.94,WSW,238,2.0,6.0,60,0.00,CLR,,0.00,WeatherDisplay:10.37,2013-08-02 19:54:00,
2013-08-02 14:59:00,85.5,69.5,29.94,SW,227,3.5,3.5,59,0.00,CLR,,0.00,WeatherDisplay:10.37,2013-08-02 19:59:00,
2013-08-02 15:05:00,85.4,70.9,29.94,West,265,3.5,3.5,62,0.00,CLR,,0.00,WeatherDisplay:10.37,2013-08-02 20:05:00,
2013-08-02 15:10:00,85.3,71.7,29.94,WSW,241,1.0,4.0,64,0.00,CLR,,0.00,WeatherDisplay:10.37,2013-08-02 20:10:00,
2013-08-02 15:15:00,85.1,70.6,29.94,WSW,238,0.0,5.0,62,0.00,CLR,,0.00,WeatherDisplay:10.37,2013-08-02 20:15:00,
2013-08-02 15:20:00,85.2,70.2,29.93,SW,234,0.0,2.0,61,0.00,CLR,,0.00,WeatherDisplay:10.37,2013-08-02 20:20:00,
2013-08-02 15:25:00,85.4,72.3,29.93,SSW,206,0.0,1.0,65,0.00,CLR,,0.00,WeatherDisplay:10.37,2013-08-02 20:25:00,
2013-08-02 15:30:00,85.4,70.9,29.93,ESE,106,0.0,0.3,62,0.00,CLR,,0.00,WeatherDisplay:10.37,2013-08-02 20:30:00,
2013-08-02 15:35:00,85.2,72.1,29.93,ESE,112,0.0,2.0,65,0.00,CLR,,0.00,WeatherDisplay:10.37,2013-08-02 20:35:00,
2013-08-02 15:40:00,85.0,71.9,29.93,WSW,242,2.0,2.0,65,0.00,CLR,,0.00,WeatherDisplay:10.37,2013-08-02 20:40:00,
2013-08-02 15:45:00,84.8,72.2,29.93,SSW,210,0.0,0.0,66,0.00,CLR,,0.00,WeatherDisplay:10.37,2013-08-02 20:45:00,
2013-08-02 15:49:00,84.8,72.6,29.93,SW,224,0.0,0.0,67,0.00,CLR,,0.00,WeatherDisplay:10.37,2013-08-02 20:49:00,
2013-08-02 15:55:00,84.6,73.3,29.92,WSW,246,0.0,0.0,69,0.00,CLR,,0.00,WeatherDisplay:10.37,2013-08-02 20:55:00,
2013-08-02 16:00:00,84.5,71.9,29.93,SE,146,1.1,1.1,66,0.00,CLR,,0.00,WeatherDisplay:10.37,2013-08-02 21:00:00,
2013-08-02 16:05:00,84.4,71.3,29.93,SE,146,0.0,0.0,65,0.00,CLR,,0.00,WeatherDisplay:10.37,2013-08-02 21:05:00,
2013-08-02 16:10:00,84.5,72.8,29.93,SSW,209,1.1,1.1,68,0.00,CLR,,0.00,WeatherDisplay:10.37,2013-08-02 21:10:00,
2013-08-02 16:15:00,84.5,72.3,29.92,SSW,209,0.0,0.0,67,0.00,CLR,,0.00,WeatherDisplay:10.37,2013-08-02 21:15:00,
2013-08-02 16:20:00,84.4,71.8,29.92,North,5,0.0,0.0,66,0.00,CLR,,0.00,WeatherDisplay:10.37,2013-08-02 21:20:00,
2013-08-02 16:25:00,84.2,72.0,29.92,North,5,0.0,0.0,67,0.00,CLR,,0.00,WeatherDisplay:10.37,2013-08-02 21:25:00,
2013-08-02 16:30:00,83.9,71.3,29.91,East,86,2.3,2.3,66,0.00,CLR,,0.00,WeatherDisplay:10.37,2013-08-02 21:30:00,
2013-08-02 16:35:00,83.7,71.6,29.92,East,92,0.0,0.0,67,0.00,CLR,,0.00,WeatherDisplay:10.37,2013-08-02 21:35:00,
2013-08-02 16:40:00,83.5,72.3,29.92,East,94,0.0,0.0,69,0.00,CLR,,0.00,WeatherDisplay:10.37,2013-08-02 21:40:00,
2013-08-02 16:45:00,83.4,72.6,29.92,East,94,0.0,0.0,70,0.00,CLR,,0.00,WeatherDisplay:10.37,2013-08-02 21:45:00,
2013-08-02 16:50:00,83.2,72.0,29.92,East,97,0.0,0.0,69,0.00,CLR,,0.00,WeatherDisplay:10.37,2013-08-02 21:50:00,
2013-08-02 16:55:00,83.1,71.9,29.92,East,97,0.0,0.0,69,0.00,CLR,,0.00,WeatherDisplay:10.37,2013-08-02 21:55:00,
2013-08-02 17:00:00,82.7,71.9,29.91,East,90,1.1,1.1,70,0.00,CLR,,0.00,WeatherDisplay:10.37,2013-08-02 22:00:00,
2013-08-02 17:05:00,82.1,71.8,29.91,East,90,1.0,0.0,71,0.00,CLR,,0.00,WeatherDisplay:10.37,2013-08-02 22:05:00,
2013-08-02 17:10:00,81.9,72.0,29.91,East,90,0.0,0.0,72,0.00,CLR,,0.00,WeatherDisplay:10.37,2013-08-02 22:10:00,
2013-08-02 17:15:00,81.9,72.8,29.91,East,89,0.0,0.0,74,0.00,CLR,,0.00,WeatherDisplay:10.37,2013-08-02 22:15:00,
2013-08-02 17:20:00,81.9,72.4,29.90,East,90,1.1,1.1,73,0.00,CLR,,0.00,WeatherDisplay:10.37,2013-08-02 22:20:00,
2013-08-02 17:25:00,81.7,72.2,29.90,ESE,102,0.0,0.0,73,0.00,CLR,,0.00,WeatherDisplay:10.37,2013-08-02 22:25:00,
2013-08-02 17:30:00,81.5,72.0,29.90,East,101,0.0,0.0,73,0.00,CLR,,0.00,WeatherDisplay:10.37,2013-08-02 22:30:00,
2013-08-02 17:35:00,81.2,71.3,29.90,ESE,111,1.1,0.0,72,0.00,CLR,,0.00,WeatherDisplay:10.37,2013-08-02 22:35:00,
2013-08-02 17:40:00,81.1,71.6,29.89,East,82,1.1,1.1,73,0.00,CLR,,0.00,WeatherDisplay:10.37,2013-08-02 22:40:00,
2013-08-02 17:45:00,81.1,71.6,29.89,ENE,78,1.1,0.0,73,0.00,CLR,,0.00,WeatherDisplay:10.37,2013-08-02 22:45:00,
2013-08-02 17:50:00,81.0,71.9,29.89,East,98,0.0,0.0,74,0.00,CLR,,0.00,WeatherDisplay:10.37,2013-08-02 22:50:00,
2013-08-02 17:55:00,81.0,71.9,29.89,East,92,0.0,0.0,74,0.00,CLR,,0.00,WeatherDisplay:10.37,2013-08-02 22:55:00,
2013-08-02 18:00:00,80.9,71.8,29.89,East,92,1.1,1.1,74,0.00,CLR,,0.00,WeatherDisplay:10.37,2013-08-02 23:00:00,
2013-08-02 18:05:00,80.7,72.0,29.89,East,92,0.0,0.0,75,0.00,CLR,,0.00,WeatherDisplay:10.37,2013-08-02 23:05:00,
2013-08-02 18:10:00,80.6,72.3,29.89,East,92,0.0,0.0,76,0.00,CLR,,0.00,WeatherDisplay:10.37,2013-08-02 23:10:00,
2013-08-02 18:15:00,80.4,71.7,29.89,ENE,76,0.0,0.0,75,0.00,CLR,,0.00,WeatherDisplay:10.37,2013-08-02 23:15:00,
2013-08-02 18:20:00,80.3,71.3,29.89,ENE,65,0.0,0.0,74,0.00,CLR,,0.00,WeatherDisplay:10.37,2013-08-02 23:20:00,
2013-08-02 18:25:00,80.1,71.1,29.89,ENE,76,2.3,0.0,74,0.00,CLR,,0.00,WeatherDisplay:10.37,2013-08-02 23:25:00,
2013-08-02 18:30:00,79.9,70.9,29.89,ENE,77,0.0,0.0,74,0.00,CLR,,0.00,WeatherDisplay:10.37,2013-08-02 23:30:00,
2013-08-02 18:35:00,79.8,71.2,29.90,ENE,77,0.0,0.0,75,0.00,CLR,,0.00,WeatherDisplay:10.37,2013-08-02 23:35:00,
2013-08-02 18:40:00,79.6,71.4,29.90,ENE,77,0.0,0.0,76,0.00,CLR,,0.00,WeatherDisplay:10.37,2013-08-02 23:40:00,
2013-08-02 18:45:00,79.4,71.2,29.90,ENE,77,0.0,0.0,76,0.00,CLR,,0.00,WeatherDisplay:10.37,2013-08-02 23:45:00,
2013-08-02 18:50:00,79.1,71.3,29.90,ENE,77,0.0,0.0,77,0.00,CLR,,0.00,WeatherDisplay:10.37,2013-08-02 23:50:00,
2013-08-02 18:55:00,78.9,71.5,29.90,ENE,77,0.0,0.0,78,0.00,CLR,,0.00,WeatherDisplay:10.37,2013-08-02 23:55:00,
2013-08-02 19:00:00,78.6,71.5,29.90,ENE,77,0.0,0.0,79,0.00,CLR,,0.00,WeatherDisplay:10.37,2013-08-03 00:00:00,
2013-08-02 19:05:00,78.4,71.7,29.90,ENE,77,0.0,0.0,80,0.00,CLR,,0.00,WeatherDisplay:10.37,2013-08-03 00:05:00,
2013-08-02 19:10:00,78.2,71.9,29.90,ENE,77,0.0,0.0,81,0.00,CLR,,0.00,WeatherDisplay:10.37,2013-08-03 00:10:00,
2013-08-02 19:15:00,77.9,71.6,29.89,ENE,77,0.0,0.0,81,0.00,CLR,,0.00,WeatherDisplay:10.37,2013-08-03 00:15:00,
2013-08-02 19:20:00,77.6,71.3,29.89,ENE,77,0.0,0.0,81,0.00,CLR,,0.00,WeatherDisplay:10.37,2013-08-03 00:20:00,
2013-08-02 19:25:00,77.5,71.6,29.90,ENE,77,0.0,0.0,82,0.00,CLR,,0.00,WeatherDisplay:10.37,2013-08-03 00:25:00,
2013-08-02 19:30:00,77.3,71.4,29.90,ENE,77,0.0,0.0,82,0.00,CLR,,0.00,WeatherDisplay:10.37,2013-08-03 00:30:00,
2013-08-02 19:36:00,77.2,71.3,29.90,ENE,77,0.0,0.0,82,0.00,CLR,,0.00,WeatherDisplay:10.37,2013-08-03 00:36:00,
2013-08-02 19:41:00,77.0,71.4,29.90,ENE,77,0.0,0.0,83,0.00,CLR,,0.00,WeatherDisplay:10.37,2013-08-03 00:41:00,
2013-08-02 19:46:00,76.9,71.3,29.90,ENE,77,0.0,0.1,83,0.00,CLR,,0.00,WeatherDisplay:10.37,2013-08-03 00:46:00,
2013-08-02 19:51:00,76.6,71.0,29.91,ENE,77,0.0,0.0,83,0.00,CLR,,0.00,WeatherDisplay:10.37,2013-08-03 00:51:00,
2013-08-02 19:56:00,76.4,70.9,29.91,ENE,77,0.0,0.0,83,0.00,CLR,,0.00,WeatherDisplay:10.37,2013-08-03 00:56:00,
2013-08-02 20:01:00,76.4,70.9,29.90,ENE,77,0.0,0.0,83,0.00,CLR,,0.00,WeatherDisplay:10.37,2013-08-03 01:01:00,
2013-08-02 20:06:00,76.4,71.2,29.90,East,96,0.0,0.0,84,0.00,CLR,,0.00,WeatherDisplay:10.37,2013-08-03 01:06:00,
2013-08-02 20:11:00,76.3,71.1,29.90,East,96,0.0,0.0,84,0.00,CLR,,0.00,WeatherDisplay:10.37,2013-08-03 01:11:00,
2013-08-02 20:16:00,76.1,70.9,29.90,East,96,0.0,0.0,84,0.00,CLR,,0.00,WeatherDisplay:10.37,2013-08-03 01:16:00,
2013-08-02 20:21:00,76.0,71.2,29.90,East,96,0.0,0.0,85,0.00,CLR,,0.00,WeatherDisplay:10.37,2013-08-03 01:21:00,
2013-08-02 20:26:00,75.8,71.0,29.90,East,96,0.0,0.0,85,0.00,CLR,,0.00,WeatherDisplay:10.37,2013-08-03 01:26:00,
2013-08-02 20:31:00,75.6,70.8,29.91,East,96,0.0,0.0,85,0.00,CLR,,0.00,WeatherDisplay:10.37,2013-08-03 01:31:00,
2013-08-02 20:36:00,75.5,70.7,29.91,East,96,0.0,0.0,85,0.00,CLR,,0.00,WeatherDisplay:10.37,2013-08-03 01:36:00,
2013-08-02 20:41:00,75.5,70.7,29.91,East,96,0.0,0.0,85,0.00,CLR,,0.00,WeatherDisplay:10.37,2013-08-03 01:41:00,
2013-08-02 20:46:00,75.3,70.8,29.92,East,96,0.0,0.0,86,0.00,CLR,,0.00,WeatherDisplay:10.37,2013-08-03 01:46:00,
2013-08-02 20:51:00,75.3,70.8,29.92,East,96,0.0,0.0,86,0.00,CLR,,0.00,WeatherDisplay:10.37,2013-08-03 01:51:00,
2013-08-02 20:56:00,75.2,71.1,29.92,East,96,0.0,0.0,87,0.00,CLR,,0.00,WeatherDisplay:10.37,2013-08-03 01:56:00,
2013-08-02 21:01:00,75.1,71.0,29.92,East,96,0.0,0.0,87,0.00,CLR,,0.00,WeatherDisplay:10.37,2013-08-03 02:01:00,
2013-08-02 21:06:00,75.0,71.2,29.92,East,96,0.0,0.0,88,0.00,CLR,,0.00,WeatherDisplay:10.37,2013-08-03 02:06:00,
2013-08-02 21:11:00,74.9,71.1,29.92,East,96,0.0,0.0,88,0.00,CLR,,0.00,WeatherDisplay:10.37,2013-08-03 02:11:00,
2013-08-02 21:16:00,74.8,71.0,29.92,East,96,0.0,0.0,88,0.00,CLR,,0.00,WeatherDisplay:10.37,2013-08-03 02:16:00,
2013-08-02 21:21:00,74.6,70.8,29.92,East,96,0.0,0.0,88,0.00,CLR,,0.00,WeatherDisplay:10.37,2013-08-03 02:21:00,
2013-08-02 21:26:00,74.6,70.8,29.92,East,96,0.0,0.0,88,0.00,CLR,,0.00,WeatherDisplay:10.37,2013-08-03 02:26:00,
2013-08-02 21:31:00,74.5,71.0,29.92,East,96,0.0,0.0,89,0.00,CLR,,0.00,WeatherDisplay:10.37,2013-08-03 02:31:00,
2013-08-02 21:37:00,74.4,70.9,29.92,East,96,0.0,0.0,89,0.00,CLR,,0.00,WeatherDisplay:10.37,2013-08-03 02:37:00,
2013-08-02 21:42:00,74.3,70.8,29.92,East,96,0.0,0.0,89,0.00,CLR,,0.00,WeatherDisplay:10.37,2013-08-03 02:42:00,
2013-08-02 21:47:00,74.3,70.8,29.91,East,96,0.0,0.0,89,0.00,CLR,,0.00,WeatherDisplay:10.37,2013-08-03 02:47:00,
2013-08-02 21:52:00,74.2,70.4,29.91,East,96,0.0,0.0,88,0.00,CLR,,0.00,WeatherDisplay:10.37,2013-08-03 02:52:00,
2013-08-02 21:57:00,74.2,70.4,29.91,East,86,0.0,0.0,88,0.00,CLR,,0.00,WeatherDisplay:10.37,2013-08-03 02:57:00,
2013-08-02 22:02:00,74.1,70.3,29.91,East,86,0.0,0.0,88,0.00,CLR,,0.00,WeatherDisplay:10.37,2013-08-03 03:02:00,
2013-08-02 22:07:00,73.9,70.1,29.91,East,86,0.0,0.0,88,0.00,CLR,,0.00,WeatherDisplay:10.37,2013-08-03 03:07:00,
2013-08-02 22:12:00,73.8,70.0,29.91,East,86,0.0,0.0,88,0.00,CLR,,0.00,WeatherDisplay:10.37,2013-08-03 03:12:00,
2013-08-02 22:17:00,73.7,69.9,29.91,East,86,0.0,0.0,88,0.00,CLR,,0.00,WeatherDisplay:10.37,2013-08-03 03:17:00,
2013-08-02 22:22:00,73.6,70.2,29.91,East,86,0.0,0.0,89,0.00,CLR,,0.00,WeatherDisplay:10.37,2013-08-03 03:22:00,
2013-08-02 22:27:00,73.4,70.0,29.91,East,86,0.0,0.0,89,0.00,CLR,,0.00,WeatherDisplay:10.37,2013-08-03 03:27:00,
2013-08-02 22:32:00,73.3,69.9,29.91,East,86,0.0,0.0,89,0.00,CLR,,0.00,WeatherDisplay:10.37,2013-08-03 03:32:00,
2013-08-02 22:37:00,73.1,69.7,29.91,East,86,0.0,0.0,89,0.00,CLR,,0.00,WeatherDisplay:10.37,2013-08-03 03:37:00,
2013-08-02 22:42:00,73.0,69.6,29.91,East,86,0.0,0.0,89,0.00,CLR,,0.00,WeatherDisplay:10.37,2013-08-03 03:42:00,
2013-08-02 22:47:00,72.9,69.5,29.91,East,86,0.0,0.0,89,0.00,CLR,,0.00,WeatherDisplay:10.37,2013-08-03 03:47:00,
2013-08-02 22:52:00,72.8,69.7,29.91,East,86,0.0,0.0,90,0.00,CLR,,0.00,WeatherDisplay:10.37,2013-08-03 03:52:00,
2013-08-02 22:57:00,72.7,69.6,29.90,East,86,0.0,0.0,90,0.00,CLR,,0.00,WeatherDisplay:10.37,2013-08-03 03:57:00,
2013-08-02 22:58:00,72.7,69.6,29.90,East,86,0.0,0.0,90,0.00,CLR,,0.00,WeatherDisplay:10.37,2013-08-03 03:58:00,
2013-08-02 23:01:00,72.6,69.5,29.90,East,86,0.0,0.0,90,0.00,CLR,,0.00,WeatherDisplay:10.37,2013-08-03 04:01:00,
2013-08-02 23:06:00,72.5,69.4,29.90,East,86,0.0,0.0,90,0.00,CLR,,0.00,WeatherDisplay:10.37,2013-08-03 04:06:00,
2013-08-02 23:11:00,72.3,69.2,29.90,East,86,0.0,0.0,90,0.00,CLR,,0.00,WeatherDisplay:10.37,2013-08-03 04:11:00,
2013-08-02 23:17:00,72.2,69.1,29.91,East,86,0.0,0.0,90,0.00,CLR,,0.00,WeatherDisplay:10.37,2013-08-03 04:17:00,
2013-08-02 23:22:00,72.0,68.9,29.91,East,86,0.0,0.0,90,0.00,CLR,,0.00,WeatherDisplay:10.37,2013-08-03 04:22:00,
2013-08-02 23:27:00,71.8,68.7,29.91,East,86,0.0,0.0,90,0.00,CLR,,0.00,WeatherDisplay:10.37,2013-08-03 04:27:00,
2013-08-02 23:32:00,71.7,68.9,29.91,East,86,0.0,0.0,91,0.00,CLR,,0.00,WeatherDisplay:10.37,2013-08-03 04:32:00,
2013-08-02 23:37:00,71.5,68.7,29.91,East,86,0.0,0.0,91,0.00,CLR,,0.00,WeatherDisplay:10.37,2013-08-03 04:37:00,
2013-08-02 23:42:00,71.4,68.6,29.91,East,86,0.0,0.0,91,0.00,CLR,,0.00,WeatherDisplay:10.37,2013-08-03 04:42:00,
2013-08-02 23:47:00,71.3,68.5,29.91,East,86,0.0,0.0,91,0.00,CLR,,0.00,WeatherDisplay:10.37,2013-08-03 04:47:00,
2013-08-02 23:52:00,71.2,68.8,29.91,East,86,0.0,0.0,92,0.00,CLR,,0.00,WeatherDisplay:10.37,2013-08-03 04:52:00,
2013-08-02 23:57:00,71.2,68.8,29.91,East,86,0.0,0.0,92,0.00,CLR,,0.00,WeatherDisplay:10.37,2013-08-03 04:57:00,